Total_Precipitation_Accumulation
1.92 1.88 2.27 3.02 3.46 3.00 2.53 1.98 1.64 1.55 1.36 1.12 0.87 0.84 1.02 1.40 1.83 2.13 2.38 2.25 1.56 1.22 1.24 1.79 2.30 2.11 1.73 1.49 1.44 1.45 1.37 1.39 1.29 1.19 1.03 0.93 0.84 0.77 0.67 0.53 0.54 0.55 0.52 0.48 0.49 0.60 0.59 0.60 0.76
1.43 2.20 2.83 3.58 3.15 2.51 2.26 1.88 1.71 1.46 1.06 0.87 0.65 0.60 0.71 0.74 0.77 1.18 2.23 2.28 1.44 1.14 1.17 1.36 1.90 1.82 1.52 1.35 1.35 1.39 1.33 1.41 1.34 1.14 0.98 0.83 0.81 0.82 0.71 0.63 0.72 0.59 0.50 0.46 0.50 0.61 0.64 0.67 0.79
1.58 2.55 3.37 3.57 2.49 2.20 2.19 1.92 1.55 1.15 0.79 0.75 0.65 0.59 0.74 0.93 0.94 1.34 2.02 1.70 1.26 1.14 1.17 1.52 1.88 1.75 1.55 1.38 1.43 1.46 1.38 1.39 1.24 0.99 0.82 0.77 0.82 0.85 0.84 0.84 0.81 0.58 0.47 0.42 0.47 0.58 0.65 0.69 0.77
1.85 2.81 3.03 2.78 2.25 1.83 1.75 1.67 1.24 0.98 0.76 0.53 0.57 0.64 0.68 0.97 0.95 1.24 1.37 1.18 1.04 1.12 1.15 1.42 1.74 1.68 1.54 1.39 1.43 1.46 1.47 1.44 1.33 1.06 0.88 0.86 0.88 0.86 0.84 0.90 0.76 0.65 0.57 0.49 0.52 0.60 0.66 0.67 0.72
2.20 2.92 2.84 2.42 2.18 1.75 1.45 1.21 1.00 0.93 0.83 0.60 0.55 0.78 1.05 1.35 1.20 1.16 1.12 1.07 0.91 0.99 0.99 1.13 1.52 1.56 1.45 1.37 1.51 1.56 1.56 1.53 1.46 1.22 1.03 0.93 0.88 0.85 0.85 0.92 0.79 0.73 0.66 0.63 0.66 0.70 0.70 0.69 0.74
2.49 2.59 2.78 2.42 2.20 1.84 1.72 1.24 1.05 0.98 0.77 0.64 0.65 0.89 1.36 1.64 1.44 1.30 1.15 1.19 1.15 1.11 1.00 0.95 1.26 1.35 1.32 1.33 1.42 1.47 1.48 1.43 1.38 1.20 1.03 0.95 0.91 0.87 0.94 1.00 0.90 0.83 0.73 0.67 0.70 0.73 0.78 0.80 0.79
2.42 2.52 2.58 2.09 2.12 2.22 1.88 1.23 1.14 0.99 0.90 0.73 0.60 0.98 1.42 1.74 1.52 1.29 1.24 1.27 1.35 1.26 1.17 1.03 1.04 1.11 1.30 1.39 1.37 1.31 1.23 1.22 1.18 1.07 1.01 0.95 0.92 0.86 0.90 0.93 0.88 0.88 0.87 0.82 0.76 0.80 0.87 0.83 0.83
1.84 2.05 2.10 2.04 2.18 2.36 1.63 1.09 0.88 0.84 0.78 0.59 0.53 0.92 1.28 1.34 1.28 1.25 1.39 1.51 1.64 1.44 1.24 1.04 0.96 1.03 1.08 1.14 1.23 1.29 1.27 1.22 1.19 1.05 0.95 0.92 0.86 0.77 0.80 0.76 0.75 0.83 0.95 1.03 0.98 0.95 0.92 0.91 0.86
1.70 2.17 2.42 2.43 2.18 1.89 1.16 0.93 0.81 0.64 0.69 0.66 0.52 0.58 0.75 0.84 0.97 1.13 1.20 1.33 1.43 1.21 1.10 1.08 1.04 1.09 1.13 1.06 1.07 1.25 1.32 1.31 1.16 1.06 0.99 0.89 0.70 0.62 0.68 0.65 0.78 0.90 1.08 1.17 1.20 1.17 1.10 0.99 0.82
1.76 2.33 2.34 1.82 1.55 1.28 0.89 0.81 0.75 0.78 0.83 0.78 0.60 0.60 0.73 0.78 0.95 1.09 1.00 0.99 0.91 0.88 0.88 0.91 0.94 1.05 1.08 0.99 1.22 1.43 1.29 1.15 0.92 0.92 0.84 0.81 0.75 0.72 0.60 0.65 0.85 1.00 1.07 1.10 1.24 1.33 1.15 0.88 0.63
1.43 1.85 1.64 1.42 1.19 0.96 0.81 0.82 0.70 0.77 0.89 0.78 0.63 0.64 0.84 0.92 0.93 0.89 0.81 0.80 0.74 0.77 0.76 0.70 0.75 0.84 0.94 1.08 1.35 1.61 1.65 1.43 1.22 1.01 0.93 0.89 0.78 0.70 0.66 0.66 0.72 0.80 0.85 0.80 0.88 0.91 0.75 0.65 0.61
1.24 1.19 1.17 1.33 1.07 0.96 0.80 0.79 0.80 0.75 0.76 0.65 0.56 0.59 0.77 0.95 0.97 0.83 0.67 0.60 0.57 0.62 0.70 0.56 0.50 0.65 0.78 0.90 1.03 1.29 1.37 1.30 1.15 0.97 0.88 0.93 0.88 0.77 0.74 0.71 0.76 0.78 0.78 0.86 0.88 0.92 0.83 0.67 0.61
1.48 1.28 1.05 1.02 1.06 1.04 0.84 0.80 0.81 0.75 0.65 0.59 0.59 0.72 0.79 0.80 0.78 0.71 0.60 0.52 0.53 0.61 0.68 0.62 0.52 0.52 0.57 0.64 0.72 0.85 1.03 1.14 1.11 1.03 0.86 0.85 0.84 0.80 0.82 0.76 0.81 0.73 0.72 0.81 0.88 0.87 0.88 0.80 0.68
1.32 1.17 1.12 1.08 1.02 1.00 0.98 0.78 0.80 0.92 0.70 0.64 0.70 0.79 0.77 0.69 0.66 0.72 0.63 0.56 0.51 0.54 0.67 0.67 0.57 0.52 0.54 0.53 0.54 0.54 0.70 0.87 1.01 1.00 0.88 0.89 0.89 0.84 0.88 0.85 0.85 0.82 0.76 0.80 0.96 0.89 0.94 0.93 0.87
1.22 1.36 1.26 1.11 1.04 1.03 1.02 1.07 0.97 0.89 0.74 0.71 0.72 0.72 0.72 0.65 0.62 0.70 0.65 0.56 0.50 0.49 0.55 0.61 0.57 0.59 0.62 0.63 0.64 0.54 0.58 0.66 0.80 0.92 0.90 0.95 0.90 0.81 0.85 0.87 0.84 0.84 0.84 0.84 0.89 0.92 0.99 0.91 0.86
1.48 1.60 1.64 1.31 1.14 1.01 1.07 1.36 1.20 0.95 0.78 0.81 0.77 0.69 0.68 0.63 0.58 0.62 0.61 0.59 0.55 0.55 0.58 0.61 0.61 0.66 0.72 0.75 0.78 0.73 0.78 0.81 0.83 0.97 0.94 0.89 0.92 0.88 0.88 0.93 0.94 0.98 1.01 0.98 0.99 1.02 1.05 1.02 1.01
1.63 1.60 1.42 1.25 1.01 0.90 0.97 1.17 1.15 1.05 0.85 0.74 0.69 0.59 0.53 0.46 0.44 0.44 0.46 0.48 0.51 0.51 0.53 0.56 0.64 0.67 0.68 0.74 0.86 1.00 1.04 1.05 1.02 1.06 1.02 0.91 0.89 0.94 1.05 1.09 1.14 1.12 1.14 1.16 1.11 1.13 1.07 1.07 1.09
1.58 1.28 1.06 0.96 0.92 0.86 0.79 0.88 0.93 0.96 0.85 0.65 0.53 0.47 0.42 0.34 0.33 0.32 0.30 0.32 0.39 0.43 0.46 0.50 0.57 0.74 0.87 0.92 0.93 1.08 1.14 1.22 1.31 1.36 1.24 1.10 1.12 1.24 1.39 1.47 1.41 1.40 1.41 1.40 1.35 1.43 1.32 1.14 1.14
1.16 1.09 0.97 0.82 0.81 0.84 0.74 0.72 0.76 0.77 0.74 0.61 0.46 0.37 0.34 0.28 0.21 0.19 0.19 0.23 0.25 0.29 0.35 0.41 0.47 0.64 0.76 0.84 0.94 1.12 1.29 1.46 1.62 1.74 1.64 1.50 1.46 1.62 1.74 1.67 1.75 1.79 1.66 1.66 1.70 1.76 1.70 1.45 1.32
1.00 1.01 0.87 0.74 0.66 0.65 0.62 0.63 0.66 0.63 0.61 0.50 0.39 0.32 0.25 0.19 0.16 0.12 0.10 0.12 0.15 0.18 0.22 0.28 0.36 0.46 0.58 0.74 0.96 1.17 1.46 1.55 1.64 1.78 1.82 1.76 1.69 1.85 1.89 1.97 2.04 2.08 2.07 2.03 1.92 2.00 2.09 1.82 1.61
0.80 0.85 0.78 0.69 0.60 0.56 0.53 0.63 0.62 0.56 0.52 0.47 0.36 0.28 0.21 0.15 0.11 0.08 0.07 0.07 0.12 0.13 0.15 0.21 0.34 0.47 0.67 0.91 1.22 1.51 1.74 1.81 1.86 1.82 1.89 1.97 2.02 2.08 2.11 2.16 2.23 2.23 2.09 2.08 2.17 2.26 2.60 2.41 2.05
0.76 0.58 0.52 0.48 0.54 0.56 0.51 0.70 0.54 0.45 0.45 0.41 0.35 0.32 0.24 0.17 0.12 0.09 0.09 0.09 0.10 0.13 0.17 0.28 0.46 0.65 0.91 1.25 1.60 1.83 2.06 2.15 2.00 1.98 2.02 2.03 1.98 2.01 2.12 2.14 2.13 2.10 2.04 2.11 2.17 2.20 2.58 2.77 2.48
0.51 0.44 0.51 0.49 0.46 0.40 0.32 0.44 0.42 0.37 0.44 0.36 0.29 0.29 0.29 0.24 0.18 0.15 0.17 0.17 0.20 0.26 0.33 0.49 0.74 1.03 1.31 1.54 1.72 1.93 2.06 2.08 2.05 2.02 2.01 1.94 1.91 1.88 1.91 1.93 2.02 2.05 2.09 2.15 2.30 2.41 2.63 2.66 2.66
0.36 0.44 0.55 0.57 0.54 0.49 0.28 0.33 0.42 0.37 0.36 0.31 0.26 0.25 0.23 0.23 0.22 0.23 0.26 0.32 0.39 0.43 0.56 0.74 0.92 1.20 1.38 1.49 1.61 1.80 1.95 2.00 2.01 2.00 1.99 1.98 1.96 1.86 1.79 1.76 1.82 1.94 2.11 2.17 2.25 2.39 2.62 2.72 2.80
0.36 0.56 0.79 0.84 0.78 0.56 0.28 0.40 0.48 0.39 0.31 0.26 0.25 0.25 0.23 0.27 0.30 0.31 0.40 0.54 0.63 0.66 0.75 0.89 0.97 1.14 1.25 1.30 1.38 1.53 1.60 1.67 1.72 1.71 1.67 1.62 1.57 1.56 1.59 1.67 1.76 1.89 2.01 2.09 2.21 2.35 2.39 2.50 2.73
0.32 0.47 0.78 0.85 0.74 0.53 0.39 0.59 0.58 0.40 0.32 0.29 0.27 0.25 0.28 0.38 0.46 0.57 0.70 0.79 0.86 0.86 0.83 0.85 0.97 1.02 1.00 1.03 1.04 1.16 1.26 1.32 1.39 1.39 1.39 1.42 1.45 1.46 1.39 1.44 1.54 1.77 1.97 2.05 2.14 2.16 2.13 2.18 2.36
0.30 0.33 0.38 0.55 0.49 0.51 0.50 0.72 0.69 0.41 0.34 0.31 0.30 0.31 0.38 0.53 0.71 0.93 1.10 1.21 1.28 1.19 1.00 0.86 0.86 0.85 0.83 0.88 0.92 0.97 1.07 1.12 1.15 1.18 1.14 1.23 1.27 1.25 1.20 1.23 1.27 1.39 1.63 1.89 2.04 1.98 1.90 1.87 2.02
0.25 0.33 0.42 0.64 0.80 0.75 0.69 0.84 0.82 0.58 0.46 0.38 0.40 0.51 0.67 0.88 1.14 1.39 1.63 1.74 1.71 1.52 1.24 0.96 0.81 0.77 0.73 0.75 0.81 0.87 0.92 0.93 0.93 0.97 0.92 0.98 1.06 1.06 1.06 1.06 1.11 1.24 1.35 1.56 1.79 1.89 1.83 1.80 1.85
0.27 0.39 0.48 0.63 0.71 0.92 1.05 1.09 0.86 0.77 0.69 0.66 0.72 0.90 1.12 1.39 1.58 1.72 1.86 1.90 1.64 1.46 1.21 0.95 0.80 0.82 0.83 0.81 0.81 0.82 0.79 0.78 0.77 0.76 0.74 0.76 0.83 0.82 0.85 1.03 1.08 1.15 1.23 1.40 1.66 1.84 1.85 1.77 1.77
0.37 0.55 0.72 1.01 0.94 0.91 1.14 1.21 0.88 0.81 0.84 0.88 0.99 1.05 1.15 1.31 1.32 1.40 1.45 1.40 1.35 1.31 1.13 0.97 0.89 0.89 0.93 0.91 0.89 0.81 0.73 0.70 0.70 0.67 0.60 0.61 0.60 0.59 0.71 0.84 0.89 0.93 0.97 1.16 1.45 1.65 1.68 1.65 1.56